Theta_e
300 303 300 300 301 300 301 301 300 300 300 299 299 298 297 296 295 299 303 303 303 303 303 301 299 297 296 296 296 297 296 296
300 301 302 301 301 301 301 301 300 300 300 299 299 298 298 297 296 295 295 296 301 302 301 298 296 295 295 295 295 295 296 296
303 303 302 302 302 301 301 301 301 300 300 299 299 298 297 297 296 295 293 293 294 296 296 295 295 295 295 295 294 294 295 296
302 301 302 302 302 302 302 301 300 300 299 299 298 297 297 297 296 295 294 293 293 293 294 294 294 295 294 293 293 294 294 294
301 302 302 303 303 303 303 301 300 299 299 298 297 297 297 297 296 296 295 294 292 293 293 293 294 294 293 293 293 293 294 294
301 302 303 303 304 304 303 302 300 299 298 297 297 297 297 297 297 296 296 295 293 292 292 292 293 293 292 293 293 293 293 294
303 303 304 304 304 304 303 302 301 300 298 298 297 297 297 297 297 297 296 295 294 293 292 291 291 292 292 292 292 292 293 293
304 304 304 304 304 304 303 302 302 301 300 298 297 297 297 297 297 297 296 296 295 294 293 291 291 291 291 292 292 292 292 292
304 304 304 304 304 304 303 303 302 301 300 298 297 296 297 297 297 296 296 295 295 294 293 292 291 290 291 291 291 291 291 292
306 305 304 304 304 304 304 303 302 301 300 298 296 296 297 297 297 296 296 295 294 294 293 292 291 291 290 290 290 290 290 291
308 306 306 305 305 305 304 303 302 300 298 296 296 296 297 297 297 296 295 294 294 294 293 292 291 291 290 289 289 289 289 291
308 307 306 306 306 306 305 303 301 298 296 295 295 295 296 296 296 295 295 294 294 294 293 292 292 291 290 289 289 289 289 291
308 307 307 306 306 305 303 301 299 297 295 294 294 294 295 295 295 294 294 293 293 293 293 292 292 291 290 290 289 289 289 291
308 308 307 307 305 304 302 300 300 296 294 293 293 292 292 292 292 292 292 292 292 293 292 292 292 291 290 290 290 289 290 292
308 307 307 306 304 302 300 299 297 294 293 292 291 291 291 291 291 290 290 289 290 291 292 292 291 291 290 290 290 289 291 293
307 307 306 304 302 300 299 296 293 293 292 291 290 290 289 289 289 289 289 289 289 290 290 291 291 291 291 290 290 289 289 290
306 306 304 302 299 299 295 293 293 292 291 290 289 289 289 289 289 289 289 289 289 289 289 289 291 291 290 290 290 290 290 290
306 304 301 300 297 294 294 293 293 291 290 290 290 290 290 289 289 289 289 289 289 290 290 290 290 290 291 290 290 290 290 290
303 301 297 295 294 294 294 293 292 291 290 290 290 290 290 290 291 291 291 290 290 290 290 290 290 290 290 290 290 290 290 290
298 296 295 294 294 293 292 291 291 290 290 290 290 290 291 291 291 291 291 291 291 291 290 290 290 290 290 290 290 290 289 290
Wind_Speed
13 12 9 8 7 6 5 4 3 3 5 4 5 8 9 7 7 4 4 4 5 4 5 5 6 7 7 9 6 5 8 9
13 13 11 9 7 5 5 4 3 3 4 5 6 10 10 9 10 9 9 8 3 1 8 11 9 12 10 10 10 6 6 9
14 13 12 8 6 5 4 3 3 5 7 8 9 12 10 11 12 11 11 10 9 11 12 13 15 13 13 13 12 10 8 11
14 12 10 9 6 5 3 3 5 6 8 9 11 12 11 13 12 11 12 11 11 12 13 14 15 15 14 14 13 10 10 11
13 13 11 9 6 4 3 3 5 6 7 10 12 11 10 13 11 12 13 12 12 13 15 15 15 14 13 11 10 10 10 11
15 14 12 10 6 3 1 2 3 5 7 11 11 10 10 12 12 13 14 14 12 13 15 16 16 14 12 11 11 10 11 11
15 14 11 9 5 2 2 3 4 5 7 10 11 10 11 13 13 15 16 15 15 14 15 16 16 14 14 13 12 13 13 13
16 13 10 7 5 4 5 5 6 8 11 13 13 13 13 14 15 16 17 16 17 17 17 16 16 15 15 15 14 14 15 16
15 13 11 9 7 7 7 8 11 13 15 17 17 16 16 16 17 17 17 17 17 17 18 17 17 17 16 16 17 17 16 16
16 14 12 11 10 9 10 12 14 17 18 19 19 19 18 19 19 19 18 18 20 20 20 18 17 17 18 19 19 18 17 16
17 14 13 11 9 10 13 16 18 20 21 21 20 19 19 21 21 21 20 20 21 21 22 19 18 17 18 19 19 18 17 17
17 14 12 10 11 13 17 19 19 21 22 21 20 19 20 21 22 22 22 23 24 23 22 19 19 18 19 20 20 19 18 17
18 14 12 12 14 17 18 19 21 23 23 22 20 19 19 20 23 26 26 26 25 24 23 22 21 20 20 22 21 20 15 14
19 15 13 14 16 18 20 23 27 27 23 21 21 22 22 24 26 26 25 27 26 25 26 27 26 23 21 20 12 11 10 10
16 14 14 16 18 20 23 27 28 25 24 24 23 22 23 23 25 28 28 26 25 25 26 27 28 26 24 16 7 5 3 7
13 13 15 18 20 23 27 29 27 25 27 28 27 25 26 26 27 27 27 26 27 27 29 31 29 29 26 26 24 21 9 4
10 13 17 20 23 27 28 26 25 28 30 29 27 27 25 26 25 25 26 26 27 27 27 28 30 30 31 29 26 25 23 19
11 15 18 22 25 26 25 26 28 32 31 30 30 28 27 26 25 26 27 28 30 29 28 29 33 34 34 32 31 29 29 25
13 18 21 23 24 25 26 28 31 33 33 33 33 34 33 30 28 29 31 32 34 34 36 34 34 35 36 37 33 32 28 27
16 19 22 23 25 26 28 31 33 35 35 34 36 37 37 36 34 30 34 36 36 37 39 42 37 40 36 39 38 33 31 30
Wind_Direction
175 170 155 144 138 129 123 101 70 54 45 27 3 6 6 356 340 354 21 15 9 26 320 304 338 322 315 301 298 281 243 234
170 168 157 150 137 124 113 89 62 37 23 7 360 0 359 346 329 304 305 303 316 317 270 308 314 315 308 299 300 280 254 235
169 164 163 160 144 124 95 45 24 1 352 347 349 347 348 343 332 321 316 312 291 276 289 295 305 308 309 304 302 293 267 240
168 169 169 162 141 117 75 29 352 344 337 338 338 336 336 338 335 331 329 319 297 287 291 297 303 309 310 305 300 289 272 247
170 168 165 156 143 117 57 8 339 332 330 332 331 329 331 333 334 333 331 326 305 295 294 298 304 310 311 307 298 286 271 255
172 168 164 163 158 140 59 1 335 322 326 331 327 322 320 326 327 327 335 337 320 304 300 303 306 309 306 301 295 287 274 259
174 173 170 176 178 201 281 290 312 321 321 324 319 313 311 313 318 322 331 335 331 322 310 302 302 302 297 293 289 287 282 273
178 176 182 195 213 246 280 292 313 317 317 318 316 308 305 307 307 311 318 323 326 322 320 308 300 295 291 289 290 288 284 279
183 188 195 209 226 254 280 298 308 309 307 310 309 303 300 297 295 296 305 309 313 315 317 310 301 292 287 287 291 292 291 282
192 195 203 213 231 263 291 300 302 303 305 306 304 296 285 279 280 286 293 296 303 308 310 307 302 296 289 288 288 289 289 280
201 200 211 227 255 293 304 305 306 307 305 300 296 288 281 273 271 278 279 284 289 292 296 298 299 298 293 289 288 288 285 277
212 214 224 250 282 298 303 305 307 306 301 298 293 286 279 270 272 274 276 279 280 276 283 287 291 294 292 289 290 292 284 277
217 226 245 265 284 297 300 306 310 313 309 302 297 291 282 271 272 275 277 278 279 268 270 270 274 283 289 292 292 294 280 272
219 235 251 274 287 294 302 310 317 313 307 303 300 293 286 282 281 281 279 277 270 261 260 258 263 266 271 289 303 297 268 254
222 242 263 278 286 297 306 312 311 310 307 305 303 299 295 289 286 285 282 278 270 263 256 252 255 257 261 255 274 257 286 239
232 253 275 287 298 307 312 313 314 315 313 309 305 301 296 290 286 282 278 275 269 262 259 255 251 244 246 251 256 253 263 274
249 278 291 300 307 310 312 314 315 314 312 308 306 305 300 294 287 281 274 268 266 263 260 253 240 242 246 247 246 247 246 241
288 297 305 310 311 313 316 317 318 314 315 311 310 305 299 291 287 281 277 271 267 264 262 255 247 249 243 239 246 239 230 228
312 315 314 315 317 320 320 318 315 313 313 311 308 302 297 293 288 282 277 272 267 262 257 253 246 243 238 243 242 241 239 235
326 324 324 326 324 322 321 317 314 312 310 306 303 300 299 298 294 286 288 282 277 265 252 252 248 241 250 244 231 230 228 227